Date String (YYYY-MM-DD hh:mm:ss) UTC,Instrument flags,Ambient pressure (hPa),Sample flow (lpm),Bypass flow (lpm),Sample temperature (°C),Ambient temperature (°C),ASC tube jacket temperature (°C),LED temperature (°C),Box temperature (°C),Sample RH (%),Span deviation,Mass concentration (μg/m³),Mass concentration (μg/m³),Mass concentration (μg/m³)
DateTimeUTC,F1_M11,P_M11,Q1_M11,Q2_M11,T1_M11,T2_M11,T3_M11,T4_M11,T5_M11,U1_M11,ZSPAN_M11,X0_M11,X2_M11,X1_M11
2022-02-23 08:00:00,,0829.5,5.00,0.00,22.6,23.0,00.0,31.5,24.4,03.9,0000.0,0007.29,0004.07,0003.69
2022-02-23 08:01:00,,0829.5,5.01,0.00,22.7,23.2,00.0,31.5,24.6,03.9,0000.0,0007.46,0004.08,0003.73
2022-02-23 08:02:00,,0829.5,5.00,0.00,22.7,22.9,00.0,31.5,24.5,03.9,0000.0,0008.12,0004.10,0003.75
2022-02-23 08:03:00,,0829.5,5.01,0.00,22.6,22.5,00.0,31.5,24.4,03.9,0000.0,0008.19,0004.13,0003.78
2022-02-23 08:04:00,,0829.5,5.00,0.00,22.5,22.1,00.0,31.5,24.2,03.9,0000.0,0008.18,0004.16,0003.81
2022-02-23 08:05:00,,0829.6,5.00,0.00,22.5,21.8,00.0,31.5,24.1,03.9,0000.0,0008.13,0004.16,0003.84
2022-02-23 08:06:00,,0829.5,4.99,0.00,22.4,21.5,00.0,31.4,24.0,03.9,0000.0,0008.16,0004.17,0003.85
2022-02-23 08:07:00,,0829.5,5.00,0.00,22.3,21.3,00.0,31.4,23.9,03.9,0000.0,0008.10,0004.16,0003.86
2022-02-23 08:08:00,,0829.6,5.00,0.00,22.3,21.5,00.0,31.4,23.8,03.9,0000.0,0007.85,0004.16,0003.87
2022-02-23 08:09:00,,0829.5,4.99,0.00,22.4,22.2,00.0,31.4,24.0,03.9,0000.0,0007.53,0004.16,0003.88
2022-02-23 08:10:00,,0829.6,5.01,0.00,22.5,23.0,00.0,31.5,24.3,03.9,0000.0,0007.55,0004.17,0003.89
2022-02-23 08:11:00,,0829.5,5.00,0.00,22.6,23.2,00.0,31.5,24.5,03.9,0000.0,0007.63,0004.21,0003.90
2022-02-23 08:12:00,,0829.5,4.99,0.00,22.6,22.7,00.0,31.5,24.4,03.8,0000.0,0008.23,0004.25,0003.90
2022-02-23 08:13:00,,0829.5,5.00,0.00,22.5,22.1,00.0,31.5,24.3,03.9,0000.0,0008.21,0004.26,0003.91
2022-02-23 08:14:00,,0829.5,5.00,0.00,22.5,21.7,00.0,31.4,24.1,03.9,0000.0,0008.19,0004.27,0003.92
2022-02-23 08:15:00,,0829.5,5.00,0.00,22.4,21.4,00.0,31.4,24.0,03.9,0000.0,0008.22,0004.30,0003.94
2022-02-23 08:16:00,,0829.5,4.99,0.00,22.3,21.1,00.0,31.4,23.9,03.9,0000.0,0008.26,0004.32,0003.95
2022-02-23 08:17:00,,0829.5,5.02,0.00,22.2,20.9,00.0,31.3,23.8,03.9,0000.0,0008.96,0004.31,0003.96
2022-02-23 08:18:00,,0829.5,4.98,0.00,22.2,21.6,00.0,31.3,23.8,03.9,0000.0,0009.34,0004.31,0003.97
2022-02-23 08:19:00,,0829.5,5.02,0.00,22.3,22.4,00.0,31.4,24.1,03.9,0000.0,0009.72,0004.35,0003.97
2022-02-23 08:20:00,,0829.5,5.01,0.00,22.5,23.1,00.0,31.4,24.3,03.9,0000.0,0009.71,0004.35,0003.98
2022-02-23 08:21:00,,0829.5,4.99,0.00,22.6,23.1,00.0,31.4,24.5,03.8,0000.0,0009.70,0004.35,0004.00
2022-02-23 08:22:00,,0829.5,5.00,0.00,22.6,22.6,00.0,31.4,24.4,03.8,0000.0,0009.67,0004.35,0004.01
2022-02-23 08:23:00,,0829.5,5.01,0.00,22.5,22.1,00.0,31.4,24.2,03.8,0000.0,0009.29,0004.37,0004.03
2022-02-23 08:24:00,,0829.4,5.00,0.00,22.4,21.7,00.0,31.4,24.1,03.9,0000.0,0008.50,0004.37,0004.02
2022-02-23 08:25:00,,0829.4,5.00,0.00,22.4,21.3,00.0,31.4,24.0,03.9,0000.0,0008.44,0004.37,0004.04
2022-02-23 08:26:00,,0829.4,5.00,0.00,22.3,21.1,00.0,31.3,23.9,03.9,0000.0,0008.45,0004.37,0004.05
2022-02-23 08:27:00,,0829.4,5.01,0.00,22.2,20.9,00.0,31.3,23.8,03.9,0000.0,0008.44,0004.37,0004.06
2022-02-23 08:28:00,,0829.4,5.01,0.00,22.2,21.0,00.0,31.3,23.7,03.9,0000.0,0008.09,0004.38,0004.07
2022-02-23 08:29:00,,0829.4,4.99,0.00,22.2,21.8,00.0,31.3,23.9,03.9,0000.0,0007.69,0004.38,0004.07
2022-02-23 08:30:00,,0829.4,5.00,0.00,22.3,22.6,00.0,31.3,24.1,03.9,0000.0,0007.46,0004.36,0004.07
2022-02-23 08:31:00,,0829.4,5.01,0.00,22.5,23.2,00.0,31.4,24.3,03.9,0000.0,0007.66,0004.34,0004.06
2022-02-23 08:32:00,,0829.4,5.00,0.00,22.5,22.8,00.0,31.4,24.3,03.8,0000.3,0008.06,0004.35,0004.06
2022-02-23 08:33:00,,0829.3,4.99,0.00,22.5,22.3,00.0,31.4,24.2,03.9,0002.2,0008.49,0004.36,0004.06
2022-02-23 08:34:00,,0829.2,4.99,0.00,22.4,21.8,00.0,31.3,24.1,03.9,0001.8,0008.46,0004.34,0004.07
2022-02-23 08:35:00,,0829.2,5.00,0.00,22.3,21.4,00.0,31.3,24.0,03.9,0001.5,0008.50,0004.36,0004.08
2022-02-23 08:36:00,,0829.3,5.00,0.00,22.2,21.1,00.0,31.3,23.8,03.9,0000.9,0008.53,0004.38,0004.07
2022-02-23 08:37:00,,0829.2,5.02,0.00,22.2,20.9,00.0,31.2,23.7,03.9,0001.1,0008.52,0004.38,0004.07
2022-02-23 08:38:00,,0829.2,5.00,0.00,22.1,20.9,00.0,31.2,23.7,03.9,0000.9,0008.49,0004.36,0004.06
2022-02-23 08:39:00,,0829.2,5.01,0.00,22.2,21.7,00.0,31.2,23.8,03.9,0000.3,0008.43,0004.36,0004.06
2022-02-23 08:40:00,,0829.3,5.00,0.00,22.3,22.5,00.0,31.3,24.0,03.9,0000.1,0008.34,0004.35,0004.07
2022-02-23 08:41:00,,0829.2,5.00,0.00,22.4,23.1,00.0,31.3,24.3,03.9,-000.0,0008.21,0004.38,0004.09
2022-02-23 08:42:00,,0829.4,5.00,0.00,22.5,22.8,00.0,31.3,24.3,03.8,0000.6,0007.93,0004.41,0004.11
2022-02-23 08:43:00,,0829.4,4.98,0.00,22.4,22.2,00.0,31.3,24.1,03.8,0001.0,0007.80,0004.42,0004.13
2022-02-23 08:44:00,,0829.5,5.00,0.00,22.3,21.7,00.0,31.3,24.0,03.9,0001.8,0006.98,0004.42,0004.15
2022-02-23 08:45:00,,0829.3,5.01,0.00,22.2,21.2,00.0,31.3,23.8,03.9,0000.0,0006.90,0004.42,0004.16
2022-02-23 08:46:00,,0829.3,4.99,0.00,22.1,20.8,00.0,31.2,23.6,03.9,0000.0,0006.80,0004.40,0004.16
2022-02-23 08:47:00,,0829.2,4.99,0.00,22.0,20.7,00.0,31.2,23.5,03.9,0000.0,0006.78,0004.40,0004.18
2022-02-23 08:48:00,,0829.5,5.01,0.00,22.1,21.5,00.0,31.2,23.7,03.9,0000.0,0006.78,0004.41,0004.17
2022-02-23 08:49:00,,0829.2,5.00,0.00,22.2,22.4,00.0,31.2,24.0,03.9,0000.0,0006.84,0004.42,0004.18
2022-02-23 08:50:00,,0829.2,5.01,0.00,22.3,23.1,00.0,31.3,24.2,03.9,0000.0,0006.85,0004.45,0004.19
2022-02-23 08:51:00,,0829.2,5.00,0.00,22.4,22.8,00.0,31.3,24.2,03.8,0000.0,0006.83,0004.46,0004.20
2022-02-23 08:52:00,,0829.2,4.98,0.00,22.4,22.2,00.0,31.3,24.1,03.9,0000.0,0006.87,0004.48,0004.20
2022-02-23 08:53:00,,0829.3,5.00,0.00,22.3,21.7,00.0,31.2,23.9,03.9,0000.0,0006.73,0004.46,0004.19
2022-02-23 08:54:00,,0829.2,5.00,0.00,22.2,21.4,00.0,31.2,23.8,03.9,0000.0,0006.75,0004.45,0004.19
2022-02-23 08:55:00,,0829.2,5.00,0.00,22.1,21.1,00.0,31.2,23.7,03.9,0000.0,0007.00,0004.46,0004.19
2022-02-23 08:56:00,,0829.2,5.01,0.00,22.1,20.8,00.0,31.2,23.6,03.9,0000.0,0007.07,0004.48,0004.18
2022-02-23 08:57:00,,0829.2,5.00,0.00,22.0,21.0,00.0,31.1,23.6,03.9,0000.0,0007.17,0004.49,0004.19
2022-02-23 08:58:00,,0829.2,4.99,0.00,22.1,21.9,00.0,31.2,23.8,03.9,0000.0,0007.15,0004.48,0004.18
2022-02-23 08:59:00,,0829.3,5.00,0.00,22.3,22.7,00.0,31.2,24.1,03.9,0000.0,0007.12,0004.47,0004.18
